Flag for Germany Weather past 2 weeks in Pinneberg, Schleswig-Holstein, Germany

Now
36 °F

Passing clouds.


Feels Like: 26 °F
Forecast: 32 / 35 °F
Wind: 16 mph from South

Location: Hamburg-Fuhlsbuettel

Current Time: Jan 29, 2015 at 8:32:40 PM

Latest Report: Jan 29, 2015 at 8:20 PM


Visibility: N/A

Pressure: 28.82 "Hg

Humidity: 87%

Dew point: 32 °F

Location of PinnebergLocation

Historic Weather in Pinneberg — Graph

°F

Pinneberg temperature yesterday

Maximum temperature yesterday: 43 °F (at 2:50 PM)
Minimum temperature yesterday: 37 °F (at 12:20 AM)
Average temperature yesterday: 39 °F

Past Weeks' High & Low Weather Summary

 TemperatureHumidityPressure
High50 °F (Jan 15, 8:20 PM)100% (Jan 14, 7:20 PM)30.30 "Hg (Jan 14, 7:20 PM)
Low25 °F (Jan 21, 5:50 AM)70% (Jan 17, 12:50 PM)28.82 "Hg (Jan 29, 7:20 PM)
Average35 °F91%29.87 "Hg
* Reported Jan 14 7:20 PM — Jan 29 7:20 PM, Pinneberg, Weather by CustomWeather, © 2014

Note: Actual official high and low records may vary slightly from our data, if they occured in-between our weather recording intervals... More about our weather records

Advertising

Pinneberg weather history for previous 24 hours

 ConditionsComfort  
Time TempWeatherWind HumidityBarometerVisibility
7:20 PM
Jan 29
36 °FPassing clouds.13 mph87%28.82 "HgN/A
6:50 PM37 °FPartly cloudy.12 mph81%28.85 "HgN/A
6:20 PM37 °FPartly cloudy.15 mph81%28.85 "HgN/A
5:50 PM36 °FPartly cloudy.14 mph81%28.85 "HgN/A
5:20 PM37 °FPassing clouds.16 mph75%28.88 "HgN/A
4:50 PM36 °FScattered clouds.17 mph81%28.88 "HgN/A
4:20 PM37 °FScattered clouds.15 mph81%28.91 "HgN/A
3:50 PM37 °FPartly sunny.18 mph75%28.91 "HgN/A
3:20 PM37 °FBroken clouds.17 mph81%28.94 "HgN/A
2:50 PM37 °FPartly sunny.17 mph81%28.94 "HgN/A
2:20 PM37 °FPartly sunny.18 mph81%28.94 "HgN/A
1:50 PM37 °FBroken clouds.21 mph81%28.97 "HgN/A
1:20 PM37 °FPartly sunny.21 mph81%28.97 "HgN/A
12:50 PM36 °FPartly sunny.24 mph87%29.00 "HgN/A
12:20 PM36 °FBroken clouds.22 mph87%29.00 "HgN/A
11:50 AM36 °FPartly sunny.24 mph87%29.00 "HgN/A
11:20 AM36 °FPartly sunny.22 mph87%29.03 "HgN/A
10:50 AM36 °FPartly sunny.22 mph87%29.03 "HgN/A
10:20 AM36 °FPartly sunny.22 mph87%29.06 "HgN/A
9:50 AM34 °FPartly sunny.22 mph93%29.06 "HgN/A
9:20 AM34 °FPartly sunny.18 mph93%29.06 "HgN/A
8:50 AM34 °FPartly sunny.20 mph93%29.06 "HgN/A
8:20 AM36 °FSnow showers. Broken clouds.22 mph87%29.06 "Hg2 mi
7:50 AM36 °FPassing clouds.23 mph81%29.06 "HgN/A
7:20 AM36 °FPassing clouds.23 mph81%29.09 "HgN/A
6:50 AM36 °FPassing clouds.22 mph81%29.09 "HgN/A
6:20 AM36 °FPartly cloudy.21 mph81%29.09 "HgN/A
5:50 AM36 °FPartly cloudy.17 mph81%29.12 "HgN/A
5:20 AM36 °FPartly cloudy.20 mph87%29.12 "HgN/A
4:50 AM36 °FPartly cloudy.22 mph87%29.15 "HgN/A
4:20 AM36 °FPartly cloudy.17 mph87%29.15 "HgN/A
3:50 AM36 °FPartly cloudy.20 mph87%29.15 "HgN/A
3:20 AM37 °FPartly cloudy.20 mph81%29.15 "HgN/A
2:50 AM37 °FPassing clouds.18 mph81%29.15 "HgN/A
2:20 AM37 °FPassing clouds.20 mph81%29.15 "HgN/A
1:50 AM37 °FPassing clouds.21 mph87%29.15 "HgN/A
1:20 AM36 °FPartly cloudy.22 mph93%29.15 "HgN/A
12:50 AM36 °FPartly cloudy.23 mph93%29.15 "HgN/A
12:20 AM37 °FPartly cloudy.22 mph87%29.15 "HgN/A
11:50 PM
Jan 28
37 °FPartly cloudy.20 mph87%29.15 "HgN/A
11:20 PM37 °FPartly cloudy.20 mph81%29.15 "HgN/A
10:20 PM37 °FPassing clouds.14 mph87%29.18 "HgN/A
9:50 PM37 °FPassing clouds.16 mph87%29.18 "HgN/A
9:20 PM39 °FPassing clouds.20 mph81%29.18 "HgN/A
8:50 PM39 °FLight rain. Passing clouds.21 mph87%29.15 "HgN/A
8:20 PM39 °FPartly cloudy.17 mph93%29.15 "HgN/A
Weather by CustomWeather, © 2014

See weather overviewHow to use our weather pages